User: anonymous   Login
Location: Bakersfield
(35.3730°N, 119.0180°W)
Time: 13:36:41
(UTC-08:00)
Language:

Cosmos 1222 Rocket - Orbit

View from above orbital plane
View from above orbital plane
View from above satellite
View from above satellite

Ground track
Ground track

The orbit data is extracted from the following two-line orbital elements,

1 12072U 80093B   14332.20094987  .00071455  00000-0  61950-3 0  2948
2 12072 081.1783 123.1518 0008089 124.9817 235.2201 15.68824716871694
Epoch (UTC): 28 November 2014 04:49:22
Eccentricity: 0.0008089
inclination: 81.1783°
perigee height: 357 km
apogee height: 368 km
right ascension of ascending node: 123.1518°
argument of perigee: 124.9817°
revolutions per day: 15.68824716
mean anomaly at epoch: 235.2201°
orbit number at epoch: 87169

The dashed part of the orbit path shows where the satellite is in the earth's shadow,  

DLR